• In Belarus
  • List of Countries
  • For 7 days
  • Water Temperature
  • Satellite Maps
  • Weather Map
  • Weather Widgets
  • user-avatar
    Login

    Hourly Weather Ischgl

    Today, 18 October, Thursday

    Time Temperature Precipitation Wind Pressure Humidity
    00:00 +2°C° 0 mm 1 mps 575 mmHg 81%
    01:00 +2°C° 0 mm 1 mps 575 mmHg 80%
    02:00 +2°C° 0 mm 1 mps 575 mmHg 80%
    03:00 +2°C° 0 mm 1 mps 574 mmHg 80%
    04:00 +1°C° 0 mm 1 mps 574 mmHg 80%
    05:00 +1°C° 0 mm 1 mps 574 mmHg 80%
    06:00 +1°C° 0 mm 1 mps 574 mmHg 79%
    07:00 +1°C° 0 mm 1 mps 574 mmHg 79%
    08:00 +4°C° 0 mm 1 mps 575 mmHg 71%
    09:00 +6°C° 0 mm 1 mps 577 mmHg 62%
    10:00 +8°C° 0 mm 1 mps 578 mmHg 54%
    11:00 +9°C° 0 mm 1 mps 578 mmHg 52%
    12:00 +10°C° 0 mm 1 mps 578 mmHg 50%
    13:00 +11°C° 0 mm 1 mps 578 mmHg 48%
    14:00 +10°C° 0 mm 1 mps 578 mmHg 52%
    15:00 +9°C° 0 mm 1 mps 578 mmHg 56%
    16:00 +9°C° 0 mm 1 mps 577 mmHg 59%
    17:00 +7°C° 0 mm 1 mps 576 mmHg 69%
    18:00 +5°C° 0 mm 1 mps 576 mmHg 78%
    19:00 +3°C° 0 mm 1 mps 575 mmHg 88%
    20:00 +2°C° 0 mm 1 mps 575 mmHg 88%
    21:00 +2°C° 0 mm 1 mps 575 mmHg 88%
    22:00 +2°C° 0 mm 1 mps 575 mmHg 88%
    23:00 +2°C° 0 mm 1 mps 575 mmHg 87%

    Tomorrow, 19 October, Friday

    Time Temperature Precipitation Wind Pressure Humidity
    00:00 +2°C° 0 mm 1 mps 575 mmHg 86%
    01:00 +2°C° 0 mm 1 mps 575 mmHg 86%
    02:00 +2°C° 0 mm 1 mps 575 mmHg 85%
    03:00 +2°C° 0 mm 1 mps 575 mmHg 84%
    04:00 +1°C° 0 mm 1 mps 575 mmHg 83%
    05:00 +1°C° 0 mm 1 mps 575 mmHg 83%
    06:00 +1°C° 0 mm 1 mps 575 mmHg 83%
    07:00 +1°C° 0 mm 1 mps 575 mmHg 83%
    08:00 +4°C° 0 mm 1 mps 577 mmHg 74%
    09:00 +6°C° 0 mm 1 mps 578 mmHg 64%
    10:00 +9°C° 0 mm 1 mps 580 mmHg 55%
    11:00 +10°C° 0 mm 1 mps 580 mmHg 51%
    12:00 +10°C° 0 mm 1 mps 580 mmHg 47%
    13:00 +11°C° 0 mm 1 mps 580 mmHg 43%
    14:00 +10°C° 0 mm 1 mps 580 mmHg 48%
    15:00 +10°C° 0 mm 1 mps 580 mmHg 53%
    16:00 +8°C° 0 mm 2 mps 580 mmHg 58%
    17:00 +7°C° 0 mm 1 mps 579 mmHg 68%
    18:00 +5°C° 0 mm 1 mps 578 mmHg 78%
    19:00 +2°C° 0 mm 1 mps 577 mmHg 88%
    20:00 +1°C° 0 mm 0 mps 577 mmHg 88%
    21:00 +1°C° 0 mm 0 mps 577 mmHg 88%
    22:00 0°C° 0 mm 0 mps 577 mmHg 87%
    23:00 0°C° 0 mm 0 mps 577 mmHg 86%

    Day after tomorrow, 20 October, Saturday

    Time Temperature Precipitation Wind Pressure Humidity
    00:00 0°C° 0 mm 0 mps 577 mmHg 85%
    01:00 0°C° 0 mm 0 mps 577 mmHg 84%
    02:00 +1°C° 0 mm 1 mps 577 mmHg 83%
    03:00 +1°C° 0 mm 1 mps 577 mmHg 82%
    04:00 +1°C° 0 mm 1 mps 578 mmHg 82%
    05:00 +1°C° 0 mm 1 mps 578 mmHg 80%
    06:00 0°C° 0 mm 1 mps 578 mmHg 78%
    07:00 0°C° 0 mm 1 mps 578 mmHg 76%
    08:00 +3°C° 0 mm 1 mps 579 mmHg 66%
    09:00 +5°C° 0 mm 1 mps 581 mmHg 56%
    10:00 +8°C° 0 mm 1 mps 582 mmHg 45%
    11:00 +7°C° 0 mm 2 mps 582 mmHg 43%
    12:00 +8°C° 0 mm 2 mps 583 mmHg 41%
    13:00 +9°C° 0 mm 2 mps 583 mmHg 38%
    14:00 +8°C° 0 mm 2 mps 583 mmHg 44%
    15:00 +7°C° 0 mm 2 mps 582 mmHg 49%
    16:00 +7°C° 0 mm 2 mps 582 mmHg 55%
    17:00 +5°C° 0 mm 2 mps 581 mmHg 66%
    18:00 +3°C° 0 mm 1 mps 580 mmHg 77%
    19:00 +1°C° 0 mm 1 mps 579 mmHg 88%
    20:00 +1°C° 0 mm 1 mps 579 mmHg 88%
    21:00 +1°C° 0 mm 1 mps 579 mmHg 87%
    22:00 0°C° 0 mm 1 mps 579 mmHg 87%
    23:00 0°C° 0 mm 1 mps 579 mmHg 83%

    21 October, Sunday

    Time Temperature Precipitation Wind Pressure Humidity
    00:00 0°C° 0 mm 1 mps 579 mmHg 79%
    01:00 0°C° 0 mm 1 mps 579 mmHg 75%
    02:00 -1°C° 0 mm 1 mps 579 mmHg 69%
    03:00 -1°C° 0 mm 1 mps 579 mmHg 64%
    04:00 -1°C° 0 mm 1 mps 579 mmHg 58%
    05:00 -1°C° 0 mm 1 mps 579 mmHg 54%
    06:00 -1°C° 0 mm 1 mps 579 mmHg 49%
    07:00 -1°C° 0 mm 1 mps 579 mmHg 45%
    08:00 +2°C° 0 mm 1 mps 580 mmHg 38%
    09:00 +5°C° 0 mm 1 mps 582 mmHg 30%
    10:00 +7°C° 0 mm 0 mps 583 mmHg 22%
    11:00 +9°C° 0 mm 1 mps 583 mmHg 22%
    12:00 +10°C° 0 mm 1 mps 584 mmHg 22%
    13:00 +11°C° 0 mm 1 mps 584 mmHg 21%
    14:00 +10°C° 0 mm 1 mps 583 mmHg 29%
    15:00 +10°C° 0 mm 1 mps 583 mmHg 37%
    16:00 +9°C° 0 mm 1 mps 582 mmHg 45%
    17:00 +6°C° 0 mm 1 mps 581 mmHg 50%
    18:00 +4°C° 0 mm 1 mps 580 mmHg 56%
    19:00 0°C° 0 mm 0 mps 579 mmHg 61%
    20:00 +1°C° 0 mm 1 mps 579 mmHg 57%
    21:00 +1°C° 0 mm 1 mps 579 mmHg 53%
    22:00 +1°C° 0 mm 1 mps 579 mmHg 49%
    23:00 +1°C° 0 mm 1 mps 579 mmHg 48%

    22 October, Monday

    Time Temperature Precipitation Wind Pressure Humidity
    00:00 +1°C° 0 mm 1 mps 579 mmHg 46%
    01:00 +1°C° 0 mm 1 mps 579 mmHg 44%
    02:00 +1°C° 0 mm 1 mps 579 mmHg 44%
    03:00 +1°C° 0 mm 1 mps 578 mmHg 44%
    04:00 +1°C° 0 mm 1 mps 578 mmHg 44%
    05:00 +1°C° 0 mm 1 mps 578 mmHg 46%
    06:00 +1°C° 0 mm 1 mps 578 mmHg 48%
    07:00 +1°C° 0 mm 1 mps 578 mmHg 50%
    08:00 +3°C° 0 mm 1 mps 579 mmHg 46%
    09:00 +5°C° 0 mm 2 mps 581 mmHg 43%
    10:00 +7°C° 0 mm 2 mps 582 mmHg 39%
    11:00 +8°C° 0 mm 2 mps 582 mmHg 39%
    12:00 +9°C° 0 mm 2 mps 582 mmHg 39%
    13:00 +9°C° 0 mm 2 mps 582 mmHg 39%
    14:00 +8°C° 0 mm 2 mps 581 mmHg 45%
    15:00 +8°C° 0 mm 2 mps 581 mmHg 51%
    16:00 +7°C° 0 mm 2 mps 580 mmHg 56%
    17:00 +4°C° 0 mm 2 mps 579 mmHg 67%
    18:00 +2°C° 0 mm 2 mps 578 mmHg 78%
    19:00 +1°C° 0 mm 1 mps 578 mmHg 89%
    20:00 +1°C° 0 mm 1 mps 578 mmHg 90%
    21:00 0°C° 0 mm 1 mps 578 mmHg 91%
    22:00 0°C° 0 mm 1 mps 578 mmHg 92%
    23:00 0°C° 0 mm 1 mps 577 mmHg 91%

    23 October, Tuesday

    Time Temperature Precipitation Wind Pressure Humidity
    00:00 -1°C° 0 mm 1 mps 577 mmHg 90%
    01:00 -1°C° 0 mm 1 mps 576 mmHg 89%
    02:00 -1°C° 0 mm 1 mps 576 mmHg 88%
    03:00 -2°C° 0 mm 1 mps 576 mmHg 86%
    04:00 -2°C° 0 mm 1 mps 575 mmHg 85%
    05:00 -2°C° 0 mm 1 mps 575 mmHg 84%
    06:00 -2°C° 0 mm 1 mps 575 mmHg 84%
    07:00 -2°C° 0 mm 1 mps 574 mmHg 84%
    08:00 0°C° 0 mm 1 mps 575 mmHg 75%
    09:00 -1°C° 0 mm 2 mps 575 mmHg 67%
    10:00 +2°C° 0 mm 2 mps 576 mmHg 59%
    11:00 +2°C° 0.1 mm 2 mps 575 mmHg 63%
    12:00 +1°C° 0.1 mm 3 mps 575 mmHg 67%
    13:00 +1°C° 0.1 mm 3 mps 575 mmHg 71%
    14:00 0°C° 0.8 mm 3 mps 574 mmHg 76%
    15:00 -1°C° 0.8 mm 3 mps 573 mmHg 81%
    16:00 -2°C° 0.8 mm 3 mps 572 mmHg 85%
    17:00 -4°C° 0.5 mm 3 mps 572 mmHg 87%
    18:00 -5°C° 0.5 mm 3 mps 572 mmHg 89%
    19:00 -6°C° 0.5 mm 3 mps 572 mmHg 91%
    20:00 -6°C° 0.5 mm 3 mps 571 mmHg 91%
    21:00 -6°C° 0.5 mm 3 mps 571 mmHg 92%
    22:00 -6°C° 0.5 mm 2 mps 571 mmHg 92%
    23:00 -6°C° 0.6 mm 2 mps 571 mmHg 92%
    Show more